Weather History for Punta Cana, Dominican Republic

Change the Weather History Date:

Saturday, October 5, 2013

  Actual Average Record
Temperature  
Mean Temperature 79 °F -  
Max Temperature 87 °F 85 °F 89 °F (2001)
Min Temperature 71 °F 75 °F 71 °F (2013)
Cooling Degree Days 14    
Growing Degree Days 29 (Base 50)    
Moisture  
Dew Point 75 °F    
Average Humidity 86    
Maximum Humidity 100    
Minimum Humidity 66    
Precipitation  
Precipitation 0.00 in - - ()
Sea Level Pressure  
Sea Level Pressure 29.93 in    
Wind  
Wind Speed 2 mph ()    
Max Wind Speed 9 mph    
Max Gust Speed -    
Visibility 6.6 miles    
Events      
Averages and records for this station are not official NWS values.
T = Trace of Precipitation, MM = Missing Value Source: Averaged Metar Reports

Daily Weather History Graph

Daily Weather History Graph

Search for Another Location

Airport:

Trip Planner

Search our weather history database for the weather conditions in past years. The results will help you decide how hot, cold, wet, or windy it might be!

Date:

Astronomy

Oct. 05, 2013 Rise Set
Actual Time 6:24 AM AST 6:18 PM AST
Civil Twilight 6:03 AM AST 6:40 PM AST
Nautical Twilight 5:37 AM AST 7:05 PM AST
Astronomical Twilight 5:12 AM AST 7:30 PM AST
Moon 6:50 AM AST (10/5) 6:48 PM AST (10/5)
Length of Visible Light 12h 37m
Length of Day
11h 53m
New Moon, 0% of the Moon is Illuminated
Oct 5
New Moon
Oct 11
First Quarter
Oct 18
Full
Oct 26
Last Quarter
Nov 3
New

Hourly Weather History & Observations

Time (AST) Temp. Heat Index Dew Point Humidity Pressure Visibility Wind Dir Wind Speed Gust Speed Precip Events Conditions
12:00 AM 75.2 °F - 73.4 °F 94% 29.95 in 6.2 mi Calm Calm - N/A   Mostly Cloudy
1:00 AM 75.2 °F - 73.4 °F 94% 29.89 in 6.2 mi Calm Calm - N/A   Mostly Cloudy
2:00 AM 75.2 °F - 73.4 °F 94% 29.92 in 6.2 mi Calm Calm - N/A   Mostly Cloudy
3:00 AM 75.2 °F - 73.4 °F 94% 29.92 in 6.2 mi Calm Calm - N/A   Scattered Clouds
4:00 AM 75.2 °F - 73.4 °F 94% 29.92 in 6.2 mi Calm Calm - N/A   Scattered Clouds
5:00 AM 73.4 °F - 73.4 °F 100% 29.92 in 6.2 mi Calm Calm - N/A   Scattered Clouds
6:00 AM 71.6 °F - 71.6 °F 100% 29.92 in 6.2 mi Calm Calm - N/A   Scattered Clouds
7:00 AM 71.6 °F - 71.6 °F 100% 29.92 in 6.2 mi Calm Calm - N/A   Scattered Clouds
8:00 AM 77 °F - 75 °F 91% 29.95 in 10 mi Calm Calm - -   Scattered Clouds
8:00 AM 77.0 °F - 75.2 °F 94% 29.95 in 6.2 mi Calm Calm - N/A   Scattered Clouds
9:00 AM 84.2 °F 94.1 °F 77.0 °F 79% 29.95 in 6.2 mi ESE 5.8 mph - N/A   Scattered Clouds
10:00 AM 84.2 °F 94.1 °F 77.0 °F 79% 29.98 in 6.2 mi SE 4.6 mph - N/A   Scattered Clouds
11:00 AM 85 °F - 75 °F 66% 29.99 in 10 mi SSE 4.5 mph - -   Scattered Clouds
11:00 AM 84.2 °F 92.3 °F 75.2 °F 74% 29.98 in 6.2 mi SSE 4.6 mph - N/A   Scattered Clouds
12:00 PM 86.0 °F 96.9 °F 77.0 °F 74% 29.95 in 6.2 mi SSE 5.8 mph - N/A   Scattered Clouds
1:00 PM 86.0 °F 96.9 °F 77.0 °F 74% 29.92 in 6.2 mi South 6.9 mph - N/A   Scattered Clouds
2:00 PM 86 °F - 76 °F 67% 29.92 in 10 mi South 8.9 mph - -   Scattered Clouds
2:00 PM 86.0 °F 96.9 °F 77.0 °F 74% 29.92 in 6.2 mi South 9.2 mph - N/A   Scattered Clouds
3:00 PM 84.2 °F 94.1 °F 77.0 °F 79% 29.89 in 6.2 mi South 8.1 mph - N/A   Scattered Clouds
4:00 PM 84.2 °F 94.1 °F 77.0 °F 79% 29.86 in 6.2 mi South 5.8 mph - N/A   Scattered Clouds
5:00 PM 82.4 °F 90.9 °F 77.0 °F 84% 29.86 in 6.2 mi SSE 4.6 mph - N/A   Scattered Clouds
6:00 PM 82.4 °F 90.9 °F 77.0 °F 84% 29.89 in 6.2 mi Calm Calm - N/A   Scattered Clouds
7:00 PM 78.8 °F - 77.0 °F 94% 29.89 in 6.2 mi ESE 4.6 mph - N/A   Scattered Clouds
8:00 PM 78.8 °F - 75.2 °F 89% 29.92 in 6.2 mi East 4.6 mph - N/A   Partly Cloudy
9:00 PM 78.8 °F - 75.2 °F 89% 29.92 in 6.2 mi East 4.6 mph - N/A   Partly Cloudy
10:00 PM 77.0 °F - 75.2 °F 94% 29.95 in 6.2 mi NNE 4.6 mph - N/A   Partly Cloudy
11:00 PM 77.0 °F - 73.4 °F 89% 29.95 in 6.2 mi North 4.6 mph - N/A   Partly Cloudy